Webcam 1 more information Webcam 1


Webcam 2 more information Webcam 2


altri nostri siti meteo:

TortoretometeolidoSito sul meteo

TortoretometeolidoSito sul meteo

Pomeziameteo 1Sito sul meteo

Pomeziameteo DashboardSito sul meteo

Caput FrigorisSito sul meteo

BarcellonameteoSito sul meteo

MeteoipassiSito sul meteo

ViterbometeoSito sul meteo

CastelnuovovomanometeoSito sul meteo



Nessuna attenzione particolare richiesta.    Non ci sono allerte meteo

Weather Underground Storia pagina Testo

Quotidiano Riepilogo per novembre 21, 2018 Unita:  Metrico    Inglese   Entrambi
« Indietro Day
Avanti Day »
Quotidiano Settimanale mensile Annuale Personalizzato
  Attuale: Max: Min: Media:
Temperatura: 10 °C -17.8 °C 9.1 °C 9.1 °C
P.to Rugiada: 7.4 °C -17.8 °C 6.5 °C 6.6 °C
Umidita: 84 % Humidity % 83 % 83 %
Vel. Vento: 0 km/h 0 km/h 0 km/h 3.9 km/h
Raffiche: 0 km/h 0 km/h - -
Vento:Calm - - WNW
Pressione: 1013.8 hPa 0 hPa 1009 hPa -
Precipitazioni: 0 mm      
Historical Graphs
 
 
Dati di tabella per il novembre 21, 2018
Tempo Temperatura P.to Rugiada Pressione Vento Vel. Vento Raffiche Umidita Tasso delle precipitazioni (oraria)
-17.8 °C -17.8 °C 0 hPa Calm     Humidity % 0 mm
00:00 9.6 °C 7.3 °C 1009 hPa Calm     86 % 0 mm
00:05 9.6 °C 7.3 °C 1009 hPa Calm     86 % 0 mm
00:10 9.5 °C 7.2 °C 1009 hPa Calm     86 % 0 mm
00:15 9.5 °C 7.2 °C 1009 hPa WNW 6.4 km/h 16.1 km/h 86 % 0 mm
00:20 9.5 °C 7.2 °C 1009 hPa NNW 8 km/h 17.7 km/h 86 % 0 mm
00:25 9.5 °C 7.2 °C 1009 hPa WNW 9.7 km/h 9.7 km/h 86 % 0 mm
00:30 9.5 °C 7.2 °C 1009 hPa NW 4.8 km/h 14.5 km/h 86 % 0 mm
00:35 9.5 °C 7.2 °C 1009 hPa WNW 8 km/h 16.1 km/h 86 % 0 mm
00:40 9.4 °C 7.2 °C 1009 hPa West 16.1 km/h 19.3 km/h 86 % 0 mm
00:45 9.4 °C 7 °C 1009 hPa NNW 9.7 km/h 17.7 km/h 85 % 0 mm
00:50 9.4 °C 7 °C 1009 hPa WNW 9.7 km/h 19.3 km/h 85 % 0 mm
00:55 9.4 °C 6.9 °C 1009.4 hPa Calm   17.7 km/h 85 % 0 mm
01:00 9.4 °C 6.9 °C 1009.4 hPa NNW 8 km/h 20.9 km/h 85 % 0 mm
01:05 9.4 °C 6.9 °C 1009.4 hPa WNW 11.3 km/h 19.3 km/h 85 % 0 mm
01:10 9.4 °C 6.9 °C 1009.4 hPa Calm   11.3 km/h 85 % 0 mm
01:15 9.4 °C 7 °C 1009.4 hPa Calm     85 % 0 mm
01:20 9.4 °C 6.9 °C 1009.7 hPa Calm     85 % 0 mm
01:25 9.4 °C 6.9 °C 1009.7 hPa Calm     85 % 0 mm
01:30 9.4 °C 6.9 °C 1009.7 hPa Calm     85 % 0 mm
01:35 9.4 °C 6.9 °C 1009.7 hPa Calm     85 % 0 mm
01:40 9.4 °C 6.9 °C 1009.7 hPa Calm     85 % 0 mm
01:45 9.4 °C 6.8 °C 1009.7 hPa Calm     84 % 0 mm
01:50 9.3 °C 6.7 °C 1009.7 hPa Calm     84 % 0 mm
01:55 9.3 °C 6.7 °C 1010 hPa Calm     84 % 0 mm
02:00 9.3 °C 6.7 °C 1010 hPa Calm     84 % 0 mm
02:05 9.3 °C 6.7 °C 1010 hPa Calm     84 % 0 mm
02:10 9.3 °C 6.7 °C 1010 hPa Calm     84 % 0 mm
02:15 9.3 °C 6.7 °C 1010 hPa Calm     84 % 0 mm
02:20 9.3 °C 6.7 °C 1010 hPa NW 8 km/h 9.7 km/h 84 % 0 mm
02:25 9.3 °C 6.7 °C 1010 hPa NW 3.2 km/h 14.5 km/h 84 % 0 mm
02:30 9.3 °C 6.7 °C 1010 hPa NNW 3.2 km/h 14.5 km/h 84 % 0 mm
02:35 9.3 °C 6.7 °C 1010 hPa NW 9.7 km/h 16.1 km/h 84 % 0 mm
02:40 9.3 °C 6.7 °C 1010 hPa NW 6.4 km/h 14.5 km/h 84 % 0 mm
02:45 9.3 °C 6.7 °C 1010 hPa North 3.2 km/h 14.5 km/h 84 % 0 mm
02:50 9.3 °C 6.7 °C 1010 hPa NNW 9.7 km/h 11.3 km/h 84 % 0 mm
02:55 9.3 °C 6.7 °C 1010.4 hPa North 4.8 km/h 11.3 km/h 84 % 0 mm
03:00 9.2 °C 6.6 °C 1010.4 hPa NW 4.8 km/h 16.1 km/h 84 % 0 mm
03:05 9.2 °C 6.6 °C 1010.4 hPa NNW 3.2 km/h 9.7 km/h 84 % 0 mm
03:10 9.2 °C 6.6 °C 1010.4 hPa NNW 6.4 km/h 17.7 km/h 84 % 0 mm
03:15 9.2 °C 6.6 °C 1010.4 hPa WNW 14.5 km/h 20.9 km/h 84 % 0 mm
03:20 9.2 °C 6.6 °C 1010.7 hPa NNW 9.7 km/h 16.1 km/h 84 % 0 mm
03:25 9.2 °C 6.6 °C 1010.7 hPa NNW 6.4 km/h 19.3 km/h 84 % 0 mm
03:30 9.2 °C 6.6 °C 1010.7 hPa NW 14.5 km/h 17.7 km/h 84 % 0 mm
03:35 9.2 °C 6.6 °C 1010.7 hPa West 11.3 km/h 14.5 km/h 84 % 0 mm
03:40 9.2 °C 6.6 °C 1010.7 hPa WNW 8 km/h 20.9 km/h 84 % 0 mm
03:45 9.2 °C 6.6 °C 1010.7 hPa WNW 6.4 km/h 19.3 km/h 84 % 0 mm
03:50 9.2 °C 6.6 °C 1010.7 hPa WNW 19.3 km/h 20.9 km/h 84 % 0 mm
03:55 9.2 °C 6.6 °C 1010.7 hPa WSW 3.2 km/h 19.3 km/h 84 % 0 mm
04:00 9.2 °C 6.6 °C 1010.7 hPa WSW 17.7 km/h 20.9 km/h 84 % 0 mm
04:05 9.2 °C 6.6 °C 1011.1 hPa WNW 8 km/h 17.7 km/h 84 % 0 mm
04:10 9.2 °C 6.6 °C 1011.1 hPa WNW 9.7 km/h 14.5 km/h 84 % 0 mm
04:15 9.2 °C 6.6 °C 1011.1 hPa NNW 8 km/h 14.5 km/h 84 % 0 mm
04:20 9.2 °C 6.6 °C 1011.4 hPa WNW 6.4 km/h 12.9 km/h 84 % 0 mm
04:25 9.2 °C 6.6 °C 1011.4 hPa West 3.2 km/h 9.7 km/h 84 % 0 mm
04:30 9.2 °C 6.6 °C 1011.4 hPa NW 8 km/h 14.5 km/h 84 % 0 mm
04:35 9.2 °C 6.6 °C 1011.4 hPa WNW 8 km/h 9.7 km/h 84 % 0 mm
04:40 9.2 °C 6.6 °C 1011.7 hPa West 6.4 km/h 16.1 km/h 84 % 0 mm
04:45 9.3 °C 6.7 °C 1011.7 hPa WNW 11.3 km/h 19.3 km/h 84 % 0 mm
04:50 9.3 °C 6.5 °C 1011.7 hPa West 9.7 km/h 19.3 km/h 83 % 0 mm
04:55 9.3 °C 6.6 °C 1011.7 hPa WNW 4.8 km/h 17.7 km/h 83 % 0 mm
05:00 9.3 °C 6.6 °C 1011.7 hPa West 8 km/h 12.9 km/h 83 % 0 mm
05:05 9.3 °C 6.6 °C 1012.1 hPa WNW 4.8 km/h 17.7 km/h 83 % 0 mm
05:10 9.3 °C 6.6 °C 1012.1 hPa WNW 4.8 km/h 12.9 km/h 83 % 0 mm
05:15 9.4 °C 6.6 °C 1012.1 hPa NW 9.7 km/h 9.7 km/h 83 % 0 mm
05:20 9.4 °C 6.6 °C 1012.1 hPa West 6.4 km/h 8 km/h 83 % 0 mm
05:25 9.4 °C 6.6 °C 1012.1 hPa WNW 8 km/h 11.3 km/h 83 % 0 mm
05:30 9.4 °C 6.6 °C 1012.4 hPa Calm   8 km/h 83 % 0 mm
05:35 9.4 °C 6.7 °C 1012.4 hPa Calm   1.6 km/h 83 % 0 mm
05:40 9.4 °C 6.7 °C 1012.1 hPa Calm     83 % 0 mm
05:45 9.4 °C 6.7 °C 1012.1 hPa NW 4.8 km/h 11.3 km/h 83 % 0 mm
05:50 9.4 °C 6.7 °C 1012.4 hPa Calm   9.7 km/h 83 % 0 mm
05:55 9.5 °C 6.7 °C 1012.4 hPa Calm     83 % 0 mm
06:00 9.5 °C 6.7 °C 1012.4 hPa Calm   9.7 km/h 83 % 0 mm
06:05 9.5 °C 6.7 °C 1012.4 hPa Calm     83 % 0 mm
06:10 9.5 °C 6.7 °C 1012.4 hPa Calm     83 % 0 mm
06:15 9.6 °C 6.8 °C 1012.8 hPa Calm     83 % 0 mm
06:20 9.6 °C 6.8 °C 1012.8 hPa Calm     83 % 0 mm
06:25 9.6 °C 6.8 °C 1012.8 hPa Calm     83 % 0 mm
06:30 9.6 °C 6.8 °C 1012.8 hPa Calm     83 % 0 mm
06:35 9.6 °C 6.8 °C 1012.8 hPa Calm     83 % 0 mm
06:40 9.6 °C 6.8 °C 1012.8 hPa Calm     83 % 0 mm
06:45 9.6 °C 6.8 °C 1012.8 hPa Calm     83 % 0 mm
06:50 9.4 °C 6.7 °C 1012.8 hPa Calm     83 % 0 mm
06:55 9.3 °C 6.6 °C 1013.1 hPa Calm     83 % 0 mm
07:00 9.3 °C 6.7 °C 1013.1 hPa Calm     84 % 0 mm
07:05 9.2 °C 6.6 °C 1013.1 hPa Calm     84 % 0 mm
07:10 9.2 °C 6.6 °C 1013.1 hPa Calm     84 % 0 mm
07:15 9.1 °C 6.5 °C 1013.1 hPa Calm     84 % 0 mm
07:20 9.1 °C 6.7 °C 1013.1 hPa Calm     85 % 0 mm
07:25 9.2 °C 6.7 °C 1013.4 hPa Calm     85 % 0 mm
07:30 9.2 °C 6.8 °C 1013.4 hPa Calm     85 % 0 mm
07:35 9.3 °C 6.8 °C 1013.4 hPa Calm     85 % 0 mm
07:40 9.3 °C 6.8 °C 1013.4 hPa Calm     85 % 0 mm
07:45 9.4 °C 6.9 °C 1013.4 hPa Calm     85 % 0 mm
07:50 9.4 °C 7 °C 1013.4 hPa Calm     85 % 0 mm
07:55 9.5 °C 7.1 °C 1013.4 hPa Calm     85 % 0 mm
08:00 9.7 °C 7.2 °C 1013.8 hPa Calm     85 % 0 mm
08:05 9.8 °C 7.2 °C 1013.8 hPa Calm     84 % 0 mm
08:10 9.8 °C 7.2 °C 1013.8 hPa Calm     84 % 0 mm
08:15 9.9 °C 7.3 °C 1013.8 hPa Calm     84 % 0 mm
08:20 9.9 °C 7.3 °C 1013.8 hPa Calm     84 % 0 mm
08:25 10 °C 7.4 °C 1013.8 hPa Calm     84 % 0 mm
Stazione meteorologica di Tortoreto (TE)
complimenti di Weather Underground - 3 mb

Script sviluppato da  Jim McMurry - jmcmurry@mwt.net Adattato per il modello da  Wim van der Kuil - Leuven-Template.eu

Potete trovare le nostre info meteo anche a:

European Weather Network

Weather Underground

AWEKAS

Citizen Weather Observer Program (CWOP)

HAMweather, WeatherForYou, PWS Weather

Strumentazione usata:

Stazione meteo
Davis VP2

Programma gestore dati meteo
WVIEW

Server per i dati meteo
My Computer

Provider
My provider

Davis VP2

WVIEW

My Computer

My provider